WAT5327 KBOI-KSFO

Flight info

Callsign WAT5327
Flight time N/A
Altitude 40000
Route HYVAL REO LEGGS BDEGA4
Aircraft A319/M-SDE3FGHIRWY/LB1

Departure

Time 2026-04-30 22:52
Airport Boise Air Terminal/Gowen Field (KBOI)

Arrival

Time N/A
Airport San Francisco International Airport (KSFO)
Time Latitude Longitude Altitude Speed Heading
2026-04-30 22:29 43.56684 -116.21921 2854 ft 0 kts 25°
2026-04-30 22:43 43.56656 -116.21939 2854 ft 3 kts 25°
2026-04-30 22:44 43.56634 -116.21976 2854 ft 3 kts 86°
2026-04-30 22:45 43.56634 -116.21992 2855 ft 0 kts 114°
2026-04-30 22:45 43.56624 -116.21959 2854 ft 5 kts 114°
2026-04-30 22:46 43.56586 -116.21840 2854 ft 7 kts 114°
2026-04-30 22:47 43.56555 -116.21746 2857 ft 3 kts 114°
2026-04-30 22:47 43.56541 -116.21703 2855 ft 2 kts 114°
2026-04-30 22:48 43.56538 -116.21694 2859 ft 0 kts 114°
2026-04-30 22:49 43.56519 -116.21656 2857 ft 8 kts 123°
2026-04-30 22:49 43.56343 -116.21342 2867 ft 23 kts 116°
2026-04-30 22:50 43.55948 -116.20996 2872 ft 13 kts 204°
2026-04-30 22:51 43.55929 -116.21122 2871 ft 0 kts 295°
2026-04-30 22:51 43.56136 -116.21727 2866 ft 92 kts 295°
2026-04-30 22:52 43.56492 -116.22765 2858 ft 147 kts 295°
2026-04-30 22:52 43.57131 -116.25650 3982 ft 165 kts 251°
2026-04-30 22:53 43.55572 -116.28155 5052 ft 191 kts 227°
2026-04-30 22:53 43.53579 -116.31178 5890 ft 234 kts 229°
2026-04-30 22:53 43.52435 -116.32938 6393 ft 258 kts 229°
2026-04-30 22:54 43.49921 -116.36824 8056 ft 281 kts 228°
2026-04-30 22:55 43.45894 -116.43086 10570 ft 313 kts 228°
2026-04-30 22:55 43.42886 -116.47771 11948 ft 335 kts 228°
2026-04-30 22:56 43.39749 -116.52648 13616 ft 346 kts 228°
2026-04-30 22:56 43.34870 -116.60219 15912 ft 358 kts 229°
2026-04-30 22:57 43.31543 -116.65371 17354 ft 368 kts 230°
2026-04-30 22:57 43.28074 -116.70722 18743 ft 378 kts 230°
2026-04-30 22:58 43.24551 -116.76146 20076 ft 384 kts 230°
2026-04-30 22:59 43.19179 -116.84416 22068 ft 393 kts 230°
2026-04-30 22:59 43.13633 -116.92900 23960 ft 404 kts 231°